Tracking 34142 objects as of 17-May-2026
HD Live streaming from Space Station
objects crossing your sky now

O3B FM16

Track O3B FM16 now!
10-day predictions
O3B FM16 is classified as:


NORAD ID: 43232
Int'l Code: 2018-024B
Perigee: 8,069.2 km
Apogee: 8,076.9 km
Inclination: 0.0 °
Period: 287.9 minutes
Semi major axis: 14444 km
RCS: Unknown
Launch date: March 9, 2018
Source: O3b Networks (O3B)
Launch site: FRENCH GUIANA (FRGUI)
Your satellite tracking list
Your tracking list is empty




NASA's NSSDC Master Catalog

Two Line Element Set (TLE):
1 43232U 18024B   26137.16212608 -.00000014  00000-0  00000-0 0  9990
2 43232   0.0497   8.1834 0002668  45.0377 306.8058  5.00115955149384
Source of the keplerian elements: AFSPC